Flag for U.S.A. Weather past 2 weeks in Appleton, Wisconsin, U.S.A.

Now
73 °F

Mostly cloudy.


Feels Like: 72 °F
Forecast: 69 / 81 °F
Wind: 10 mph from Southwest

Location: Appleton / Outagamie

Current Time: Jul 29, 2015 at 4:55:47 AM

Latest Report: Jul 29, 2015 at 4:15 AM


Visibility: 10 mi

Pressure: 29.89 "Hg

Humidity: 89%

Dew point: 70 °F

Location of AppletonLocation

Historic Weather in Appleton — Graph

°F

Appleton temperature yesterday

Maximum temperature yesterday: 84 °F (at 12:45 PM)
Minimum temperature yesterday: 66 °F (at 3:15 AM)
Average temperature yesterday: 75 °F

Past Weeks' High & Low Weather Summary

 TemperatureHumidityPressure
High88 °F (Jul 18, 5:45 PM)100% (Jul 14, 3:15 AM)30.07 "Hg (Jul 14, 3:15 AM)
Low50 °F (Jul 15, 4:55 AM)32% (Jul 20, 4:45 PM)29.56 "Hg (Jul 14, 3:15 AM)
Average70 °F70%29.91 "Hg
* Reported Jul 14 3:15 AM — Jul 29 3:15 AM, Appleton, Weather by CustomWeather, © 2015

Note: Actual official high and low records may vary slightly from our data, if they occured in-between our weather recording intervals... More about our weather records

Advertising

Appleton weather history for previous 24 hours

 ConditionsComfort  
Time TempWeatherWind HumidityBarometerVisibility
3:15 AM
Wed, Jul 29
73 °FOvercast.10 mph89%29.89 "Hg10 mi
2:55 AM73 °FOvercast.9 mph94%29.89 "Hg10 mi
2:15 AM73 °FPassing clouds.6 mph89%29.88 "Hg10 mi
1:55 AM73 °FPassing clouds.7 mph89%29.88 "Hg10 mi
1:35 AM73 °FPassing clouds.7 mph89%29.89 "Hg10 mi
1:15 AM73 °FClear.8 mph89%29.90 "Hg10 mi
12:55 AM73 °FClear.9 mph89%29.91 "Hg10 mi
12:35 AM73 °FClear.9 mph89%29.91 "Hg10 mi
12:15 AM73 °FClear.8 mph94%29.92 "Hg10 mi
11:55 PM
Tue, Jul 28
73 °FClear.7 mph89%29.93 "Hg10 mi
11:35 PM72 °FClear.7 mph94%29.93 "Hg10 mi
11:15 PM72 °FClear.5 mph94%29.92 "Hg10 mi
10:45 PM73 °FPassing clouds.5 mph89%29.91 "Hg10 mi
9:45 PM75 °FPartly cloudy.6 mph74%29.91 "Hg10 mi
8:45 PM79 °FBroken clouds.8 mph61%29.91 "Hg10 mi
7:45 PM79 °FBroken clouds.9 mph61%29.91 "Hg10 mi
5:45 PM82 °FPartly sunny.12 mph55%29.92 "Hg10 mi
4:45 PM84 °FPartly sunny.8 mph48%29.91 "Hg10 mi
3:45 PM84 °FScattered clouds.14 mph43%29.90 "Hg10 mi
2:45 PM84 °FPartly sunny.18 mph40%29.90 "Hg10 mi
1:45 PM84 °FPartly sunny.16 mph43%29.93 "Hg10 mi
12:45 PM84 °FPartly sunny.10 mph45%29.97 "Hg10 mi
11:45 AM82 °FPartly sunny.10 mph48%30.01 "Hg10 mi
10:45 AM82 °FPartly sunny.12 mph51%30.03 "Hg10 mi
9:45 AM79 °FPartly sunny.9 mph58%30.02 "Hg10 mi
8:45 AM79 °FScattered clouds.9 mph58%30.01 "Hg10 mi
7:45 AM75 °FScattered clouds.8 mph65%29.99 "Hg10 mi
6:45 AM70 °FScattered clouds.5 mph78%30.00 "Hg10 mi
5:45 AM68 °FClear.5 mph78%29.99 "Hg10 mi
5:15 AM66 °FClear.3 mph83%30.00 "Hg10 mi
4:15 AM68 °FClear.5 mph78%30.00 "Hg10 mi
Weather by CustomWeather, © 2015

See weather overviewHow to use our weather pages